Regional Weather Roundup
Issued by NWS Kansas City/Pleasant Hill, MO

Home | Current Version | Previous Version | Text Only | Print | Product List | Glossary On
Versions: 1 2 3 4 5 6 7 8 9 10 11 12 13 14 15 16 17 18 19 20 21 22 23 24 25 26 27 28 29 30 31 32 33 34 35 36 37 38 39 40 41 42 43 44 45 46 47 48 49 50
000
ASUS43 KEAX 010404
RWREAX

WEATHER ROUNDUP FOR EASTERN KANSAS AND NORTHWEST MISSOURI
NATIONAL WEATHER SERVICE KANSAS CITY/PLEASANT HILL MO
1100 PM CDT TUE JUN 30 2015

KSZ040-057-103>105-MOZ028-029-037-043-010500-
...KANSAS CITY METROPOLITAN AREA...

CITY           SKY/WX    TMP DP  RH WIND       PRES   REMARKS
K.C. INTL      MOCLDY    78  69  73 E10       29.91R
K.C. DOWNTOWN  PTCLDY    79  68  69 E7        29.88R
LEES SUMMIT    PTCLDY    78  65  63 SE3       29.91R
OLATHE - IXD   PTCLDY    79  68  69 SE8       29.90S
OLATHE - OJC   PTCLDY    77  67  71 SE7       29.89S
LAWRENCE       MOCLDY    79  67  66 SE7       29.87S

$$

MOZ001>008-011>017-020>025-030>033-038>040-044>046-053-054-010500-
...NORTHERN AND CENTRAL MISSOURI...

CITY           SKY/WX    TMP DP  RH WIND       PRES   REMARKS
ST. JOSEPH     LGT RAIN  76  68  76 E7        29.91R
MOSBY          PTCLDY    77  70  78 CALM      29.90S
WARRENSBURG    PTCLDY    73  70  88 CALM      29.90F
WHITEMAN AFB   MOCLDY    75  72  89 SE6       29.90S
CLINTON        CLEAR     75  73  94 CALM      29.92R
SEDALIA        PTCLDY    74  70  87 S6        29.93R
WARSAW         FAIR      73  72  94 CALM      29.93S
CHILLICOTHE      N/A     73  71  93 CALM      29.93R
KIRKSVILLE     CLOUDY    70  68  93 CALM      29.92R FOG

$$

MOZ041-047>049-056>058-063>065-088>090-097-010500-
...EASTERN AND SOUTHERN MISSOURI...

CITY           SKY/WX    TMP DP  RH WIND       PRES   REMARKS
ST. LOUIS INTL MOCLDY    77  67  71 CALM      29.91R
SPIRIT OF STL  CLOUDY    73  71  93 W3        29.90R
COLUMBIA       MOCLDY    73  70  90 SW3       29.92R
JEFFERSON CITY CLOUDY    76  71  85 CALM      29.91R
MEXICO         MOCLDY   N/A N/A N/A CALM      29.91R
ROLLA          MOCLDY    72  70  93 SW7       29.93R
OSAGE BEACH    PTCLDY    73  70  88 CALM      29.94R
SPRINGFIELD    CLEAR     76  69  79 S8        29.96R
BRANSON        CLOUDY    77  72  83 CALM      29.99S
NEVADA         PTCLDY    75  70  83 SE7       29.92S
JOPLIN         CLOUDY    80  71  74 S10       29.93R
WEST PLAINS    MOCLDY    71  67  87 CALM      29.99R
MALDEN         MOCLDY    79  70  73 W5        29.94R

$$

IAZ060-094-KSZ022-034>040-054-083-096-NEZ052-066-093-010500-
...KANSAS...SOUTHEAST NEBRASKA AND IOWA...

CITY           SKY/WX    TMP DP  RH WIND       PRES   REMARKS
TOPEKA         MOCLDY    80  68  66 E9        29.86S
MANHATTAN      PTCLDY    81  68  64 CALM      29.82F
EMPORIA        PTCLDY    80  67  64 S10       29.85S
CHANUTE        PTCLDY    79  70  74 S8        29.89S
WICHITA        MOCLDY    82  58  43 S13       29.87R
OMAHA          CLOUDY    71  68  90 N8        29.93R
LINCOLN        CLOUDY    74  64  71 E9        29.89R
FALLS CITY     LGT RAIN  74  66  76 SE5       29.89S
LAMONI         CLOUDY    72  69  90 CALM      29.91S
DES MOINES     CLOUDY    75  64  68 VRB3      29.89F

$$



USA.gov is the U.S. government's official web portal to all federal, state and local government web resources and services.